Location: Powder Track
(41.8531°N, 72.3584°W)
Time: 02:19:31
(UTC+00:00)

Vanguard 1 Rocket - Pass Details

Date: 13 August 2021
Orbit: 650 x 4226 km, 34.3° (Epoch: 16 September)

Event Time Altitude Azimuth Distance (km) Brightness Sun altitude
Rises 11:19:02 0° 232° (SW) 7,997 11.7 14.2°
Reaches altitude 10° 11:24:21 10° 229° (SW) 7,206 11.5 15.2°
Maximum altitude 11:49:29 58° 159° (SSE) 4,395 11.3 19.8°
Drops below altitude 10° 12:08:43 10° 87° (E) 5,745 13.5 23.4°
Sets 12:12:20 0° 83° (E) 6,377 13.1 24.1°
